Time,TemperatureF,DewpointF,PressureIn,WindDirection,WindDirectionDegrees,WindSpeedMPH,WindSpeedGustMPH,Humidity,HourlyPrecipIn,Conditions,Clouds,dailyrainin,SolarRadiationWatts/m^2,SoftwareType,DateUTC
2013-05-07 00:01:00,46.0,45.0,-100.00,SW,218,6.0,15.0,96,0.01,,,0.42,0.000000,,2013-05-07 07:01:00,
2013-05-07 00:32:00,46.0,45.0,-100.00,SW,236,6.0,12.0,96,0.00,,,0.42,0.000000,,2013-05-07 07:32:00,
2013-05-07 00:42:00,46.0,45.0,-100.00,SW,236,6.0,12.0,96,0.00,,,0.42,0.000000,,2013-05-07 07:42:00,
2013-05-07 00:52:00,46.0,45.0,-100.00,SW,236,6.0,12.0,96,0.00,,,0.42,0.000000,,2013-05-07 07:52:00,
2013-05-07 01:02:00,46.0,45.0,-100.00,SW,236,6.0,12.0,96,0.00,,,0.42,0.000000,,2013-05-07 08:02:00,
2013-05-07 01:32:00,46.0,45.0,-100.00,SW,218,4.0,16.0,96,0.00,,,0.42,0.000000,,2013-05-07 08:32:00,
2013-05-07 01:42:00,46.0,45.0,-100.00,SW,218,4.0,16.0,96,0.00,,,0.42,0.000000,,2013-05-07 08:42:00,
2013-05-07 01:52:00,46.0,45.0,-100.00,SW,218,4.0,16.0,96,0.00,,,0.42,0.000000,,2013-05-07 08:52:00,
2013-05-07 02:01:00,46.0,45.0,-100.00,SW,218,4.0,16.0,96,0.00,,,0.42,0.000000,,2013-05-07 09:01:00,
2013-05-07 02:33:00,48.0,47.0,-100.00,SW,220,10.0,18.0,96,0.00,,,0.42,0.000000,,2013-05-07 09:33:00,
2013-05-07 02:43:00,48.0,47.0,-100.00,SW,220,10.0,18.0,96,0.00,,,0.42,0.000000,,2013-05-07 09:43:00,
2013-05-07 02:52:00,48.0,47.0,-100.00,SW,220,10.0,18.0,96,0.00,,,0.42,0.000000,,2013-05-07 09:52:00,
2013-05-07 03:02:00,48.0,47.0,-100.00,SW,220,10.0,18.0,96,0.00,,,0.42,0.000000,,2013-05-07 10:02:00,
2013-05-07 03:32:00,46.0,45.0,-100.00,SW,220,8.0,19.0,96,0.00,,,0.41,0.000000,,2013-05-07 10:32:00,
2013-05-07 03:42:00,46.0,45.0,-100.00,SW,220,8.0,19.0,96,0.00,,,0.41,0.000000,,2013-05-07 10:42:00,
2013-05-07 03:52:00,46.0,45.0,-100.00,SW,220,8.0,19.0,96,0.00,,,0.41,0.000000,,2013-05-07 10:52:00,
2013-05-07 04:02:00,46.0,45.0,-100.00,SW,220,8.0,19.0,96,0.00,,,0.41,0.000000,,2013-05-07 11:02:00,
2013-05-07 04:32:00,46.0,45.0,-100.00,SSW,193,4.0,19.0,96,0.00,,,0.39,0.000000,,2013-05-07 11:32:00,
2013-05-07 04:42:00,46.0,45.0,-100.00,SSW,193,4.0,19.0,96,0.00,,,0.39,0.000000,,2013-05-07 11:42:00,
2013-05-07 04:52:00,46.0,45.0,-100.00,SSW,193,4.0,19.0,96,0.00,,,0.39,0.000000,,2013-05-07 11:52:00,
2013-05-07 05:01:00,46.0,45.0,-100.00,SSW,193,4.0,19.0,96,0.00,,,0.39,0.000000,,2013-05-07 12:01:00,
2013-05-07 05:32:00,45.0,44.0,-100.00,SW,227,14.0,25.0,97,0.02,,,0.40,0.000000,,2013-05-07 12:32:00,
2013-05-07 05:42:00,45.0,44.0,-100.00,SW,227,14.0,25.0,97,0.02,,,0.40,0.000000,,2013-05-07 12:42:00,
2013-05-07 05:52:00,45.0,44.0,-100.00,SW,227,14.0,25.0,97,0.02,,,0.40,0.000000,,2013-05-07 12:52:00,
2013-05-07 06:02:00,45.0,44.0,-100.00,SW,227,14.0,25.0,97,0.02,,,0.40,0.000000,,2013-05-07 13:02:00,
2013-05-07 06:32:00,44.0,43.0,-100.00,SSW,213,6.0,26.0,96,0.02,,,-99.99,0.000000,,2013-05-07 13:32:00,
2013-05-07 06:42:00,44.0,43.0,-100.00,SSW,213,6.0,26.0,96,0.02,,,-99.99,0.000000,,2013-05-07 13:42:00,
2013-05-07 06:52:00,44.0,43.0,-100.00,SSW,213,6.0,26.0,96,0.02,,,-99.99,0.000000,,2013-05-07 13:52:00,
2013-05-07 07:01:00,44.0,43.0,-100.00,SSW,213,6.0,26.0,96,0.02,,,-99.99,0.000000,,2013-05-07 14:01:00,
2013-05-07 07:32:00,45.0,43.0,-100.00,SW,231,5.0,13.0,93,0.00,,,0.35,24.000000,,2013-05-07 14:32:00,
2013-05-07 07:42:00,45.0,43.0,-100.00,SW,231,5.0,13.0,93,0.00,,,0.35,24.000000,,2013-05-07 14:42:00,
2013-05-07 07:52:00,45.0,43.0,-100.00,SW,231,5.0,13.0,93,0.00,,,0.35,24.000000,,2013-05-07 14:52:00,
2013-05-07 08:01:00,45.0,43.0,-100.00,SW,231,5.0,13.0,93,0.00,,,0.35,24.000000,,2013-05-07 15:01:00,
2013-05-07 08:33:00,47.0,44.0,-100.00,SW,223,7.0,12.0,90,0.00,,,0.32,227.000000,,2013-05-07 15:33:00,
2013-05-07 08:42:00,47.0,44.0,-100.00,SW,223,7.0,12.0,90,0.00,,,0.32,227.000000,,2013-05-07 15:42:00,
2013-05-07 08:53:00,47.0,44.0,-100.00,SW,223,7.0,12.0,90,0.00,,,0.32,227.000000,,2013-05-07 15:53:00,
2013-05-07 09:03:00,47.0,44.0,-100.00,SW,223,7.0,12.0,90,0.00,,,0.32,227.000000,,2013-05-07 16:03:00,
2013-05-07 11:32:00,45.0,43.0,-100.00,WSW,243,8.0,20.0,94,-99.99,,,-99.99,160.000000,,2013-05-07 18:32:00,
2013-05-07 11:42:00,45.0,43.0,-100.00,WSW,243,8.0,20.0,94,-99.99,,,-99.99,160.000000,,2013-05-07 18:42:00,
2013-05-07 11:52:00,45.0,43.0,-100.00,WSW,243,8.0,20.0,94,-99.99,,,-99.99,160.000000,,2013-05-07 18:52:00,
2013-05-07 12:02:00,45.0,43.0,-100.00,WSW,243,8.0,20.0,94,-99.99,,,-99.99,160.000000,,2013-05-07 19:02:00,
2013-05-07 12:32:00,49.0,45.0,-100.00,SW,221,7.0,16.0,86,0.00,,,0.29,562.000000,,2013-05-07 19:32:00,
2013-05-07 12:42:00,49.0,45.0,-100.00,SW,221,7.0,16.0,86,0.00,,,0.29,562.000000,,2013-05-07 19:42:00,
2013-05-07 12:52:00,49.0,45.0,-100.00,SW,221,7.0,16.0,86,0.00,,,0.29,562.000000,,2013-05-07 19:52:00,
2013-05-07 13:01:00,49.0,45.0,-100.00,SW,221,7.0,16.0,86,0.00,,,0.29,562.000000,,2013-05-07 20:01:00,
2013-05-07 13:32:00,56.0,46.0,-100.00,SSW,209,10.0,18.0,69,0.00,,,0.27,,,2013-05-07 20:32:00,
2013-05-07 14:01:00,56.0,46.0,-100.00,SSW,209,10.0,18.0,69,0.00,,,0.27,,,2013-05-07 21:01:00,
2013-05-07 14:33:00,52.0,44.0,-100.00,SW,229,7.0,20.0,73,-99.99,,,0.25,372.000000,,2013-05-07 21:33:00,
2013-05-07 14:42:00,52.0,44.0,-100.00,SW,229,7.0,20.0,73,-99.99,,,0.25,372.000000,,2013-05-07 21:42:00,
2013-05-07 14:53:00,52.0,44.0,-100.00,SW,229,7.0,20.0,73,-99.99,,,0.25,372.000000,,2013-05-07 21:53:00,
2013-05-07 15:02:00,52.0,44.0,-100.00,SW,229,7.0,20.0,73,-99.99,,,0.25,372.000000,,2013-05-07 22:02:00,
2013-05-07 15:33:00,53.0,42.0,-100.00,WSW,242,7.0,18.0,67,0.00,,,0.21,558.000000,,2013-05-07 22:33:00,
2013-05-07 15:42:00,53.0,42.0,-100.00,WSW,242,7.0,18.0,67,0.00,,,0.21,558.000000,,2013-05-07 22:42:00,
2013-05-07 15:52:00,53.0,42.0,-100.00,WSW,242,7.0,18.0,67,0.00,,,0.21,558.000000,,2013-05-07 22:52:00,
2013-05-07 16:01:00,53.0,42.0,-100.00,WSW,242,7.0,18.0,67,0.00,,,0.21,558.000000,,2013-05-07 23:01:00,
2013-05-07 16:32:00,55.0,41.0,-100.00,SSW,211,8.0,15.0,60,0.00,,,0.12,1360.000000,,2013-05-07 23:32:00,
2013-05-07 16:42:00,55.0,41.0,-100.00,SSW,211,8.0,15.0,60,0.00,,,0.12,1360.000000,,2013-05-07 23:42:00,
2013-05-07 16:52:00,55.0,41.0,-100.00,SSW,211,8.0,15.0,60,0.00,,,0.12,1360.000000,,2013-05-07 23:52:00,
2013-05-07 17:01:00,55.0,41.0,-100.00,SSW,211,8.0,15.0,60,0.00,,,0.12,1360.000000,,2013-05-08 00:01:00,
2013-05-07 17:32:00,51.0,43.0,-100.00,SW,229,10.0,17.0,75,0.00,,,-99.99,159.000000,,2013-05-08 00:32:00,
2013-05-07 17:42:00,51.0,43.0,-100.00,SW,229,10.0,17.0,75,0.00,,,-99.99,159.000000,,2013-05-08 00:42:00,
2013-05-07 17:52:00,51.0,43.0,-100.00,SW,229,10.0,17.0,75,0.00,,,-99.99,159.000000,,2013-05-08 00:52:00,
2013-05-07 18:02:00,51.0,43.0,-100.00,SW,229,10.0,17.0,75,0.00,,,-99.99,159.000000,,2013-05-08 01:02:00,
2013-05-07 18:32:00,49.0,41.0,-100.00,SW,231,7.0,16.0,74,0.00,,,0.12,115.000000,,2013-05-08 01:32:00,
2013-05-07 18:42:00,49.0,41.0,-100.00,SW,231,7.0,16.0,74,0.00,,,0.12,115.000000,,2013-05-08 01:42:00,
2013-05-07 18:52:00,49.0,41.0,-100.00,SW,231,7.0,16.0,74,0.00,,,0.12,115.000000,,2013-05-08 01:52:00,
2013-05-07 19:01:00,49.0,41.0,-100.00,SW,231,7.0,16.0,74,0.00,,,0.12,115.000000,,2013-05-08 02:01:00,
2013-05-07 19:32:00,48.0,42.0,-100.00,SW,216,6.0,12.0,79,0.00,,,0.11,24.000000,,2013-05-08 02:32:00,
2013-05-07 19:42:00,48.0,42.0,-100.00,SW,216,6.0,12.0,79,0.00,,,0.11,24.000000,,2013-05-08 02:42:00,
2013-05-07 19:52:00,48.0,42.0,-100.00,SW,216,6.0,12.0,79,0.00,,,0.11,24.000000,,2013-05-08 02:52:00,
2013-05-07 20:01:00,48.0,42.0,-100.00,SW,216,6.0,12.0,79,0.00,,,0.11,24.000000,,2013-05-08 03:01:00,
2013-05-07 20:33:00,47.0,42.0,-100.00,SW,222,5.0,11.0,83,0.00,,,0.11,1.000000,,2013-05-08 03:33:00,
2013-05-07 20:43:00,47.0,42.0,-100.00,SW,222,5.0,11.0,83,0.00,,,0.11,1.000000,,2013-05-08 03:43:00,
2013-05-07 20:52:00,47.0,42.0,-100.00,SW,222,5.0,11.0,83,0.00,,,0.11,1.000000,,2013-05-08 03:52:00,
2013-05-07 21:02:00,47.0,42.0,-100.00,SW,222,5.0,11.0,83,0.00,,,0.11,1.000000,,2013-05-08 04:02:00,
2013-05-07 21:33:00,48.0,44.0,-100.00,SW,227,4.0,11.0,85,0.00,,,0.11,0.000000,,2013-05-08 04:33:00,
2013-05-07 21:43:00,48.0,44.0,-100.00,SW,227,4.0,11.0,85,0.00,,,0.11,0.000000,,2013-05-08 04:43:00,
2013-05-07 21:53:00,48.0,44.0,-100.00,SW,227,4.0,11.0,85,0.00,,,0.11,0.000000,,2013-05-08 04:53:00,
2013-05-07 22:02:00,48.0,44.0,-100.00,SW,227,4.0,11.0,85,0.00,,,0.11,0.000000,,2013-05-08 05:02:00,
2013-05-07 22:32:00,46.0,43.0,-100.00,West,261,4.0,8.0,88,0.00,,,0.11,0.000000,,2013-05-08 05:32:00,
2013-05-07 22:42:00,46.0,43.0,-100.00,West,261,4.0,8.0,88,0.00,,,0.11,0.000000,,2013-05-08 05:42:00,
2013-05-07 22:52:00,46.0,43.0,-100.00,West,261,4.0,8.0,88,0.00,,,0.11,0.000000,,2013-05-08 05:52:00,
2013-05-07 23:01:00,46.0,43.0,-100.00,West,261,4.0,8.0,88,0.00,,,0.11,0.000000,,2013-05-08 06:01:00,
2013-05-07 23:32:00,46.0,42.0,-100.00,West,280,3.0,7.0,86,0.00,,,0.10,0.000000,,2013-05-08 06:32:00,
2013-05-07 23:42:00,46.0,42.0,-100.00,West,280,3.0,7.0,86,0.00,,,0.10,0.000000,,2013-05-08 06:42:00,
2013-05-07 23:52:00,46.0,42.0,-100.00,West,280,3.0,7.0,86,0.00,,,0.10,0.000000,,2013-05-08 06:52:00,